Regional Weather Roundup
Issued by NWS

Home | Current Version | Previous Version | Text Only | Print | Product List | Glossary Off
Versions: 1 2 3 4 5 6 7 8 9 10 11 12 13 14 15 16 17 18 19 20 21 22 23 24 25 26 27 28 29 30 31 32 33 34 35 36 37 38 39 40 41 42 43 44 45 46 47 48 49 50

000
ASUS45 KBOU 060310
RWRCO

WEATHER ROUNDUP FOR COLORADO
NATIONAL WEATHER SERVICE DENVER/BOULDER CO
900 PM MDT SUN JUL 05 2015

NOTE: "FAIR" INDICATES FEW OR NO CLOUDS BELOW 12000 FEET WITH NO
SIGNIFICANT WEATHER AND/OR OBSTRUCTIONS TO VISIBILITY.

COZ001>005-013-030-031-060400-
...NORTHWEST COLORADO...

CITY           SKY/WX    TMP DP  RH WIND       PRES   REMARKS
CRAIG          MOCLDY    60  57  89 SE6       30.18F
HAYDEN         CLOUDY    57  54  88 SW3       30.20F
MEEKER         PTCLDY    61  55  81 CALM      30.18S
MOUNT WERNER   NOT AVBL
STEAMBOAT SPGS CLOUDY    58  57  97 SW3       30.21S
WALDEN         CLOUDY    54  52  94 N7        30.27F
$$

COZ006>008-011-060400-
...WEST CENTRAL VALLEYS...

CITY           SKY/WX    TMP DP  RH WIND       PRES   REMARKS
GRAND JUNCTION PTCLDY    66  62  87 E12       30.07R
MONTROSE       CLOUDY    66  57  72 S10       30.16F
EAGLE          CLOUDY    64  59  82 W3        30.20S
RIFLE          MOCLDY    65  60  84 E5        30.14R
DELTA          PTCLDY    65  60  81 W3        30.13R
NUCLA          PTCLDY    68  57  68 E8        30.18S
$$

COZ017>023-064>068-060400-
...SOUTHWEST COLORADO...

CITY           SKY/WX    TMP DP  RH WIND       PRES   REMARKS
DURANGO        PTCLDY    70  48  45 NW3       30.15R
CORTEZ         CLEAR     72  51  47 NW3       30.12R
PAGOSA SPRINGS PTCLDY    64  50  59 NW3       30.24R
TELLURIDE      PTCLDY    55  52  88 CALM      30.39R
WOLF CREEK PAS NOT AVBL
$$

COZ009-010-012-014-032>034-037-058>063-060400-
...CENTRAL COLORADO...

CITY           SKY/WX    TMP DP  RH WIND       PRES   REMARKS
ASPEN          RAIN      59  54  83 VRB3      30.29R
BUENA VISTA    CLOUDY    65  50  59 NW7       30.23S
COPPER MTN     HVY RAIN  52  45  76 W18G26    30.55S
BERTHOUD PASS  HAZE      43  32  65 W18G29    30.57S VSB 1/4
COTTONWOOD PAS NOT AVBL
GUNNISON       PTCLDY    63  48  59 SW7       30.28S
KREMMLING      CLOUDY    61  52  72 W5        30.25S
LEADVILLE      LGT RAIN  54  48  80 NW5       30.39R
MONARCH PASS   LGT RAIN  46  45  93 W17       30.64S VSB<1/4
SALIDA         MOCLDY    67  51  56 SW7       30.27S
SUNLIGHT       LGT RAIN  50  50 100 N3        30.50R
WILKERSON PASS PTCLDY    50  45  81 W10G20    30.50S
$$

COZ069>075-060400-
...SAN LUIS VALLEY/SANGRE DE CRISTO MOUNTAINS...

CITY           SKY/WX    TMP DP  RH WIND       PRES   REMARKS
ALAMOSA        CLOUDY    62  50  64 NW12      30.23R
LA VETA PASS   CLOUDY    54  45  71 MISG      30.38R
SAGUACHE       CLOUDY    59  54  82 NW12      30.26S
$$

COZ035-036-038>040-060400-
...NORTHERN COLORADO FRONT RANGE...

CITY           SKY/WX    TMP DP  RH WIND       PRES   REMARKS
DENVER INTL AP CLOUDY    67  58  72 N10       30.04R
DMNS CITY PARK   N/A     69  60  71 E3        30.04S
AURORA         MOCLDY    66  62  88 NE6       30.07R
FRONT RANGE AP MOCLDY    68  61  77 N7        30.06R
ERIE MUNI ARPT CLOUDY    70  59  69 NE8       30.04R
BOULDER MUN AP CLOUDY    68  63  83 NE5       30.05R
CENTENNIAL     CLOUDY    66  61  84 CALM      30.07S
BROOMFIELD     MOCLDY    70  59  68 VRB5      30.06R
FORT COLLINS   CLOUDY    68  57  68 N15G24    30.05R
LONGMONT       CLOUDY    70  63  77 E6        30.05R
$$

COZ041-046-047-076>085-087-088-060400-
...PIKES PEAK/PALMER DIVIDE AND SOUTHERN FOOTHILLS...

CITY           SKY/WX    TMP DP  RH WIND       PRES   REMARKS
COLO. SPRINGS  MOCLDY    69  56  62 N12       30.05S
A. F. ACADEMY  MOCLDY    64  56  76 NW6       30.08S
ELLICOTT       MOCLDY   N/A N/A N/A N13       30.03F
FALCON         MOCLDY    65  53  64 NW10      30.11S
FORT CARSON    CLOUDY    70  57  62 N13       30.02R
LIMON          MOCLDY    69  55  60 N20G31    29.99S
MONUMENT HILL  CLOUDY    59  55  88 MISG      30.14S
TRINIDAD       MOCLDY    77  53  43 W8        29.99S
$$

COZ042>045-048>051-090-091-060400-
...NORTHEAST COLORADO...

CITY           SKY/WX    TMP DP  RH WIND       PRES   REMARKS
GREELEY ARPT   CLOUDY    70  59  68 N15       30.03R
AKRON          MOCLDY    68  61  78 NW16      29.98R
BURLINGTON     CLOUDY    82  56  40 NW24G35   29.89R
WRAY           CLOUDY    76  60  58 N24G38    29.88R
STERLING       MOCLDY    70  63  78 N16G23      N/A
HOLYOKE        CLOUDY    73  61  64 NW25G33   29.90R
FORT MORGAN    MOCLDY    70  57  64 N17G25    29.98F
$$

COZ086-089-092>099-060400-
...SOUTHEAST COLORADO...

CITY           SKY/WX    TMP DP  RH WIND       PRES   REMARKS
PUEBLO         CLOUDY    77  58  51 N15       29.92F
LA JUNTA       MOCLDY    86  54  33 NW12      29.86R
LAMAR          PTCLDY    87  59  38 S18G28    29.80R
SPRINGFIELD      N/A     79  59  50 S15       29.92R
$$



USA.gov is the U.S. government's official web portal to all federal, state and local government web resources and services.